Weather History for K2C8 - April, 2014

Change the Weather History Date:

Saturday, April 26, 2014

  Actual Average (KGAF) Record (KGAF)
Temperature  
Mean Temperature 41 °F -  
Max Temperature 50 °F 61 °F 92 °F (1952)
Min Temperature 32 °F 37 °F 22 °F (1959)
Degree Days  
Heating Degree Days 24    
Moisture  
Dew Point 34 °F    
Average Humidity 76    
Maximum Humidity 100    
Minimum Humidity 54    
Precipitation  
Precipitation 0.00 in - - ()
Sea Level Pressure  
Sea Level Pressure 29.97 in    
Wind  
Wind Speed 7 mph (ESE)    
Max Wind Speed 17 mph    
Max Gust Speed 23 mph    
Visibility 10 miles    
Events      
Averages and records for this station are not official NWS values.
T = Trace of Precipitation, MM = Missing Value Source: NWS Daily Summary

Daily Weather History Graph

Daily Weather History Graph

Search for Another Location

Airport or City:

Trip Planner

Search our weather history database for the weather conditions in past years. The results will help you decide how hot, cold, wet, or windy it might be!

Date:

Astronomy

Apr. 26, 2014 Rise Set
Actual Time 6:18 AM CDT 8:38 PM CDT
Civil Twilight 5:44 AM CDT 9:13 PM CDT
Nautical Twilight 5:00 AM CDT 9:57 PM CDT
Astronomical Twilight 4:11 AM CDT 10:47 PM CDT
Moon 4:59 AM CDT (4/26) 5:56 PM CDT (4/26)
Length of Visible Light 15h 29m
Length of Day
14h 19m
Waning Crescent, 8% of the Moon is Illuminated
Apr 26
Waning Crescent
Apr 29
New
May 6
First Quarter
May 14
Full
May 21
Last Quarter

Hourly Weather History & Observations

Time (CDT) Temp. Windchill Dew Point Humidity Pressure Visibility Wind Dir Wind Speed Gust Speed Precip Events Conditions
12:15 AM 39.2 °F 35.9 °F 33.8 °F 81% 29.98 in 10.0 mi East 4.6 mph - N/A   Overcast
12:35 AM 39.2 °F 35.0 °F 33.8 °F 81% 29.98 in 10.0 mi ESE 5.8 mph - N/A   Overcast
12:55 AM 37.4 °F 32.1 °F 32.0 °F 81% 29.98 in 10.0 mi East 6.9 mph - N/A   Mostly Cloudy
1:15 AM 35.6 °F 31.7 °F 32.0 °F 87% 29.98 in 10.0 mi East 4.6 mph - N/A   Clear
1:35 AM 35.6 °F 31.7 °F 32.0 °F 87% 29.99 in 10.0 mi East 4.6 mph - N/A   Clear
1:55 AM 35.6 °F 31.7 °F 32.0 °F 87% 29.99 in 10.0 mi East 4.6 mph - N/A   Clear
2:15 AM 35.6 °F 29.9 °F 32.0 °F 87% 29.98 in 10.0 mi East 6.9 mph - N/A   Clear
2:35 AM 33.8 °F 29.6 °F 32.0 °F 93% 29.99 in 10.0 mi East 4.6 mph - N/A   Clear
2:55 AM 32.0 °F 28.7 °F 32.0 °F 100% 29.98 in 10.0 mi ESE 3.5 mph - N/A   Clear
3:15 AM 33.8 °F 29.6 °F 32.0 °F 93% 29.98 in 10.0 mi East 4.6 mph - N/A   Clear
3:35 AM 32.0 °F - 32.0 °F 100% 29.99 in 10.0 mi Calm Calm - N/A   Clear
3:55 AM 32.0 °F 27.5 °F 32.0 °F 100% 29.98 in 10.0 mi East 4.6 mph - N/A   Clear
4:15 AM 32.0 °F 27.5 °F 32.0 °F 100% 29.98 in 10.0 mi East 4.6 mph - N/A   Clear
4:35 AM 33.8 °F 29.6 °F 32.0 °F 93% 29.97 in 10.0 mi East 4.6 mph - N/A   Partly Cloudy
4:55 AM 33.8 °F 29.6 °F 32.0 °F 93% 29.98 in 10.0 mi ESE 4.6 mph - N/A   Mostly Cloudy
5:15 AM 32.0 °F 26.4 °F 32.0 °F 100% 29.98 in 10.0 mi ESE 5.8 mph - N/A   Partly Cloudy
5:35 AM 32.0 °F 27.5 °F 32.0 °F 100% 29.98 in 10.0 mi ESE 4.6 mph - N/A   Clear
5:55 AM 32.0 °F 26.4 °F 32.0 °F 100% 29.98 in 10.0 mi ESE 5.8 mph - N/A   Clear
6:15 AM 32.0 °F 26.4 °F 32.0 °F 100% 30.00 in 10.0 mi ESE 5.8 mph - N/A   Partly Cloudy
6:35 AM 32.0 °F 26.4 °F 32.0 °F 100% 29.99 in 10.0 mi ESE 5.8 mph - N/A   Partly Cloudy
6:55 AM 32.0 °F 27.5 °F 32.0 °F 100% 30.00 in 10.0 mi ESE 4.6 mph - N/A   Mostly Cloudy
7:15 AM 33.8 °F 28.6 °F 32.0 °F 93% 30.00 in 10.0 mi SE 5.8 mph - N/A   Scattered Clouds
7:35 AM 33.8 °F 29.6 °F 32.0 °F 93% 30.01 in 10.0 mi SE 4.6 mph - N/A   Clear
7:55 AM 35.6 °F 32.8 °F 32.0 °F 87% 30.01 in 10.0 mi SE 3.5 mph - N/A   Clear
8:15 AM 35.6 °F 29.9 °F 32.0 °F 87% 30.01 in 10.0 mi ESE 6.9 mph - N/A   Clear
8:35 AM 35.6 °F 29.9 °F 32.0 °F 87% 30.02 in 10.0 mi ESE 6.9 mph - N/A   Partly Cloudy
8:55 AM 37.4 °F 32.8 °F 32.0 °F 81% 30.02 in 10.0 mi SE 5.8 mph - N/A   Clear
9:15 AM 37.4 °F 31.4 °F 33.8 °F 87% 30.01 in 10.0 mi SE 8.1 mph - N/A   Clear
9:35 AM 39.2 °F 33.6 °F 35.6 °F 87% 30.01 in 10.0 mi SE 8.1 mph - N/A   Clear
9:55 AM 41.0 °F 35.8 °F 35.6 °F 81% 30.02 in 10.0 mi SE 8.1 mph - N/A   Clear
10:15 AM 41.0 °F 34.7 °F 35.6 °F 81% 30.01 in 10.0 mi SE 10.4 mph 16.1 mph N/A   Clear
10:35 AM 41.0 °F 34.7 °F 35.6 °F 81% 30.00 in 10.0 mi SE 10.4 mph - N/A   Clear
10:55 AM 42.8 °F 37.0 °F 35.6 °F 76% 30.00 in 10.0 mi SE 10.4 mph - N/A   Partly Cloudy
11:15 AM 46.4 °F 41.1 °F 37.4 °F 71% 29.99 in 10.0 mi ESE 11.5 mph - N/A   Clear
11:35 AM 46.4 °F 41.1 °F 37.4 °F 71% 29.98 in 10.0 mi ESE 11.5 mph 18.4 mph N/A   Clear
11:55 AM 46.4 °F 41.1 °F 35.6 °F 66% 29.98 in 10.0 mi ESE 11.5 mph 20.7 mph N/A   Partly Cloudy
12:15 PM 48.2 °F - 35.6 °F 62% 29.98 in 10.0 mi ESE 15.0 mph 23.0 mph N/A   Partly Cloudy
12:35 PM 48.2 °F - 35.6 °F 62% 29.98 in 10.0 mi ESE 12.7 mph 20.7 mph N/A   Partly Cloudy
12:55 PM 48.2 °F - 35.6 °F 62% 29.98 in 10.0 mi SE 11.5 mph 19.6 mph N/A   Scattered Clouds
1:15 PM 50.0 °F - 35.6 °F 58% 29.97 in 10.0 mi ESE 17.3 mph 21.9 mph N/A   Scattered Clouds
1:35 PM 50.0 °F - 35.6 °F 58% 29.97 in 10.0 mi ESE 12.7 mph 19.6 mph N/A   Scattered Clouds
1:55 PM 50.0 °F - 35.6 °F 58% 29.97 in 10.0 mi ESE 16.1 mph 21.9 mph N/A   Partly Cloudy
2:15 PM 50.0 °F - 35.6 °F 58% 29.96 in 10.0 mi ESE 16.1 mph 21.9 mph N/A   Scattered Clouds
2:35 PM 50.0 °F - 35.6 °F 58% 29.96 in 10.0 mi ESE 11.5 mph 19.6 mph N/A   Partly Cloudy
2:55 PM 50.0 °F - 35.6 °F 58% 29.96 in 10.0 mi ESE 12.7 mph 19.6 mph N/A   Scattered Clouds
3:15 PM 50.0 °F - 35.6 °F 58% 29.96 in 10.0 mi ESE 12.7 mph 20.7 mph N/A   Scattered Clouds
3:35 PM 50.0 °F - 35.6 °F 58% 29.96 in 10.0 mi ESE 11.5 mph 19.6 mph N/A   Scattered Clouds
3:55 PM 50.0 °F - 35.6 °F 58% 29.95 in 10.0 mi SE 10.4 mph 19.6 mph N/A   Mostly Cloudy
4:15 PM 50.0 °F - 35.6 °F 58% 29.94 in 10.0 mi ESE 12.7 mph 17.3 mph N/A   Scattered Clouds
4:35 PM 50.0 °F - 35.6 °F 58% 29.94 in 10.0 mi ESE 15.0 mph 19.6 mph N/A   Partly Cloudy
4:55 PM 50.0 °F - 35.6 °F 58% 29.93 in 10.0 mi ESE 16.1 mph 19.6 mph N/A   Clear
5:15 PM 50.0 °F - 35.6 °F 58% 29.92 in 10.0 mi East 15.0 mph 20.7 mph N/A   Clear
5:35 PM 48.2 °F - 33.8 °F 58% 29.92 in 10.0 mi East 12.7 mph 21.9 mph N/A   Clear
5:55 PM 48.2 °F - 32.0 °F 54% 29.91 in 10.0 mi East 11.5 mph 17.3 mph N/A   Clear
6:15 PM 48.2 °F - 32.0 °F 54% 29.92 in 10.0 mi ESE 13.8 mph 19.6 mph N/A   Clear
6:35 PM 48.2 °F - 35.6 °F 62% 29.92 in 10.0 mi East 10.4 mph - N/A   Clear
6:55 PM 48.2 °F - 35.6 °F 62% 29.93 in 10.0 mi East 9.2 mph 17.3 mph N/A   Clear
7:15 PM 48.2 °F - 35.6 °F 62% 29.94 in 10.0 mi ESE 12.7 mph - N/A   Clear
7:35 PM 48.2 °F - 35.6 °F 62% 29.93 in 10.0 mi East 10.4 mph - N/A   Clear
7:55 PM 46.4 °F 41.9 °F 35.6 °F 66% 29.94 in 10.0 mi ESE 9.2 mph - N/A   Clear
8:15 PM 46.4 °F 41.9 °F 35.6 °F 66% 29.93 in 10.0 mi ESE 9.2 mph - N/A   Clear
8:35 PM 44.6 °F 39.7 °F 35.6 °F 71% 29.93 in 10.0 mi ESE 9.2 mph - N/A   Partly Cloudy
8:55 PM 44.6 °F 40.7 °F 33.8 °F 66% 29.93 in 10.0 mi East 6.9 mph - N/A   Clear
9:15 PM 44.6 °F 39.7 °F 35.6 °F 71% 29.94 in 10.0 mi ENE 9.2 mph - N/A   Clear
9:35 PM 44.6 °F 39.7 °F 37.4 °F 76% 29.94 in 10.0 mi East 9.2 mph - N/A   Clear
9:55 PM 44.6 °F 39.7 °F 35.6 °F 71% 29.94 in 10.0 mi East 9.2 mph - N/A   Clear
10:15 PM 44.6 °F 39.7 °F 35.6 °F 71% 29.95 in 10.0 mi East 9.2 mph - N/A   Clear
10:35 PM 42.8 °F 37.5 °F 35.6 °F 76% 29.95 in 10.0 mi East 9.2 mph - N/A   Clear
10:55 PM 42.8 °F 37.5 °F 35.6 °F 76% 29.95 in 10.0 mi East 9.2 mph - N/A   Partly Cloudy
11:15 PM 42.8 °F 38.0 °F 35.6 °F 76% 29.95 in 10.0 mi East 8.1 mph - N/A   Clear
11:35 PM 41.0 °F 35.8 °F 35.6 °F 81% 29.94 in 10.0 mi East 8.1 mph - N/A   Clear
11:55 PM 41.0 °F 34.7 °F 35.6 °F 81% 29.94 in 10.0 mi East 10.4 mph - N/A   Scattered Clouds